Location: Seattle
(47.6064°N, 122.3308°W)
Time: 21:29:22
(UTC-07:00)

S-56A Canister/Altair - Pass Details

Date: 30 July 2021
Orbit: 632 x 2500 km, 38.9° (Epoch: 24 September)

Event Time Altitude Azimuth Distance (km) Brightness Sun altitude
Rises 23:49:16 0° 281° (W) 6,006 12.5 -21.2°
Reaches altitude 10° 23:55:43 10° 262° (W) 4,725 11.7 -21.6°
Maximum altitude 00:01:57 15° 233° (SW) 3,940 10.9 -21.9°
Enters shadow 00:05:54 12° 210° (SSW) 3,882 10.7 -22.1°
